sat.trackr.live / text

‹ back to catalog

MCUBED-2

NORAD 39472 · 2013-072L

PAYLOAD ACTIVE UNKNOWN

§ Identity

Operator
Country
US
Launch date
2013-12-06
Launch site
AFWTR
Launch vehicle
Mass (kg)
RCS (m²)

External: N2YO · Heavens-Above · Gunter

§ Orbital elements

Epoch: 2026-06-19T20:56:12.023232Z

Period
88.27 min
Inclination
120.4545°
Eccentricity
0.0004968
Mean motion
16.31390067 rev/d
Perigee alt
185.5 km
Apogee alt
192.1 km
Semi-major
6,566.9 km
B*
1.1633e-3
RAAN
178.0508°
Arg perigee
253.1176°
Mean anomaly
106.9405°
Rev number
11,735

§ Raw data

MCUBED-21 39472U 13072L   26170.87236138  .06143125  13939-4  11633-2 0  99992 39472 120.4545 178.0508 0004968 253.1176 106.9405 16.31390067117357

JSON: /api/v1/satellites/39472 · /tle

For live sub-satellite position, see the globe view (requires WebGL).

§ Visibility from observer

Set your observer location to see the next 7 days of passes ≥ 10°. The values pass through the URL so the page stays shareable.

No JS? Fill the form by hand. The geolocation button needs JavaScript.

§ Radio — SatNOGS DB

ModeDescriptionDownlinkUplink
FSK GMSK 9k6 (inactive) 437.480 MHz

1 transmitter · refreshed weekly from db.satnogs.org